Rutland, VT

10:24 AM EDT on March 28, 2017 (GMT -0400)
Rutland State

Weather History for KRUT - March, 2012

Change the Weather History Date:

Thursday, March 15, 2012

  Actual Average Record
Temperature  
Mean Temperature 43 °F -  
Max Temperature 52 °F - 76 °F (1990)
Min Temperature 34 °F - -17 °F (1993)
Degree Days  
Heating Degree Days 22    
Month to date heating degree days 420  
Since 1 July heating degree days 4907  
Cooling Degree Days 0    
Month to date cooling degree days 0  
Year to date cooling degree days 0  
Moisture  
Dew Point 35 °F    
Average Humidity 77    
Maximum Humidity 100    
Minimum Humidity 54    
Precipitation  
Precipitation 0.00 in - 9.94 in (2007)
Month to date precipitation 0.72  
Year to date precipitation 2.19  
Sea Level Pressure  
Sea Level Pressure 30.25 in    
Wind  
Wind Speed 7 mph (ESE)    
Max Wind Speed 16 mph    
Max Gust Speed 22 mph    
Visibility 9 miles    
Events      
T = Trace of Precipitation, MM = Missing Value Source: NWS Daily Summary

Daily Weather History Graph

Daily Weather History Graph

Search for Another Location

Airport or City:

Trip Planner

Search our weather history database for the weather conditions in past years. The results will help you decide how hot, cold, wet, or windy it might be!

Date:

Astronomy

Mar. 15, 2012 Rise Set
Actual Time 7:03 AM EDT 6:58 PM EDT
Civil Twilight 6:34 AM EDT 7:27 PM EDT
Nautical Twilight 6:01 AM EDT 8:00 PM EDT
Astronomical Twilight 5:27 AM EDT 8:34 PM EDT
Moon 2:38 AM EDT (3/15) 12:02 PM EDT (3/15)
Length of Visible Light 12h 52m
Length of Day
11h 55m
Last Quarter, 43% of the Moon is Illuminated
Mar 15
Last Quarter
Mar 22
New
Mar 30
First Quarter
Apr 6
Full
Apr 13
Last Quarter

Hourly Weather History & Observations

Time (EDT) Temp. Windchill Dew Point Humidity Pressure Visibility Wind Dir Wind Speed Gust Speed Precip Events Conditions
12:15 AM 41.0 °F - 33.8 °F 76% 30.22 in 10.0 mi Calm Calm - N/A   Overcast
12:35 AM 39.2 °F 37.0 °F 33.8 °F 81% 30.23 in 10.0 mi SE 3.5 mph - N/A   Overcast
12:55 AM 41.0 °F - 33.8 °F 76% 30.23 in 10.0 mi Calm Calm - N/A   Overcast
1:15 AM 39.2 °F - 35.6 °F 87% 30.23 in 10.0 mi Calm Calm - N/A   Overcast
1:35 AM 39.2 °F - 35.6 °F 87% 30.24 in 10.0 mi Calm Calm - N/A   Overcast
1:55 AM 41.0 °F 39.0 °F 35.6 °F 81% 30.25 in 10.0 mi North 3.5 mph - N/A   Overcast
2:35 AM 39.2 °F 35.9 °F 35.6 °F 87% 30.26 in 10.0 mi North 4.6 mph - N/A   Overcast
2:55 AM 39.2 °F - 35.6 °F 87% 30.26 in 10.0 mi Calm Calm - N/A   Overcast
3:15 AM 39.2 °F - 35.6 °F 87% 30.26 in 10.0 mi Calm Calm - N/A   Overcast
3:35 AM 39.2 °F - 35.6 °F 87% 30.26 in 10.0 mi Calm Calm - N/A   Overcast
3:55 AM 39.2 °F - 35.6 °F 87% 30.26 in 10.0 mi Calm Calm - N/A   Overcast
4:15 AM 39.2 °F 37.0 °F 35.6 °F 87% 30.25 in 10.0 mi NE 3.5 mph - N/A   Overcast
4:55 AM 37.4 °F - 33.8 °F 87% 30.26 in 10.0 mi Calm Calm - N/A   Clear
5:15 AM 35.6 °F - 33.8 °F 93% 30.27 in 10.0 mi Calm Calm - N/A   Clear
5:35 AM 33.8 °F - 32.0 °F 93% 30.27 in 10.0 mi Calm Calm - N/A   Clear
5:55 AM 35.6 °F - 32.0 °F 87% 30.27 in 10.0 mi Calm Calm - N/A   Mostly Cloudy
6:15 AM 35.6 °F - 32.0 °F 87% 30.28 in 10.0 mi Calm Calm - N/A   Overcast
6:35 AM 33.8 °F 29.6 °F 32.0 °F 93% 30.29 in 10.0 mi East 4.6 mph - N/A   Overcast
6:55 AM 33.8 °F - 30.2 °F 87% 30.29 in 10.0 mi Calm Calm - N/A   Overcast
7:35 AM 33.8 °F - 33.8 °F 100% 30.30 in 0.8 mi Calm Calm - N/A   Overcast
7:55 AM 33.8 °F 28.6 °F 32.0 °F 93% 30.30 in 0.8 mi ESE 5.8 mph - N/A   Overcast
8:15 AM 35.6 °F - 33.8 °F 93% 30.30 in 1.0 mi Calm Calm - N/A   Overcast
8:35 AM 35.6 °F 32.8 °F 33.8 °F 93% 30.31 in 2.0 mi North 3.5 mph - N/A   Overcast
8:55 AM 35.6 °F - 35.6 °F 100% 30.32 in 4.0 mi Calm Calm - N/A   Mostly Cloudy
9:15 AM 35.6 °F - 35.6 °F 100% 30.32 in 5.0 mi Calm Calm - N/A   Overcast
9:35 AM 37.4 °F - 35.6 °F 93% 30.31 in 8.0 mi Calm Calm - N/A   Mostly Cloudy
9:55 AM 39.2 °F - 35.6 °F 87% 30.30 in 10.0 mi Calm Calm - N/A   Partly Cloudy
10:15 AM 42.8 °F 38.6 °F 35.6 °F 76% 30.30 in 10.0 mi SSE 6.9 mph - N/A   Mostly Cloudy
10:35 AM 42.8 °F 38.0 °F 35.6 °F 76% 30.29 in 10.0 mi ESE 8.1 mph - N/A   Overcast
10:55 AM 44.6 °F 39.7 °F 35.6 °F 71% 30.29 in 10.0 mi SE 9.2 mph - N/A   Overcast
11:15 AM 44.6 °F 39.7 °F 35.6 °F 71% 30.29 in 10.0 mi SE 9.2 mph - N/A   Overcast
11:35 AM 44.6 °F 43.1 °F 35.6 °F 71% 30.29 in 10.0 mi SW 3.5 mph - N/A   Overcast
11:55 AM 44.6 °F 40.7 °F 35.6 °F 71% 30.29 in 10.0 mi SE 6.9 mph - N/A   Overcast
12:15 PM 44.6 °F 40.2 °F 35.6 °F 71% 30.28 in 10.0 mi SE 8.1 mph - N/A   Overcast
12:35 PM 46.4 °F 42.9 °F 35.6 °F 66% 30.27 in 10.0 mi ESE 6.9 mph - N/A   Overcast
12:55 PM 46.4 °F 42.4 °F 35.6 °F 66% 30.26 in 10.0 mi SE 8.1 mph - N/A   Overcast
1:15 PM 46.4 °F 41.9 °F 35.6 °F 66% 30.25 in 10.0 mi ESE 9.2 mph - N/A   Overcast
1:35 PM 48.2 °F - 35.6 °F 62% 30.24 in 10.0 mi SE 8.1 mph - N/A   Overcast
1:55 PM 50.0 °F - 35.6 °F 58% 30.23 in 10.0 mi ESE 9.2 mph - N/A   Mostly Cloudy
2:15 PM 48.2 °F - 35.6 °F 62% 30.24 in 10.0 mi SE 4.6 mph - N/A   Scattered Clouds
2:35 PM 50.0 °F - 35.6 °F 58% 30.23 in 10.0 mi ESE 8.1 mph - N/A   Overcast
2:55 PM 51.8 °F - 35.6 °F 54% 30.22 in 10.0 mi ESE 6.9 mph - N/A   Mostly Cloudy
3:15 PM 51.8 °F - 35.6 °F 54% 30.21 in 10.0 mi SSE 9.2 mph - N/A   Mostly Cloudy
3:55 PM 51.8 °F - 35.6 °F 54% 30.20 in 10.0 mi ESE 12.7 mph - N/A   Overcast
4:15 PM 51.8 °F - 35.6 °F 54% 30.20 in 10.0 mi SE 11.5 mph - N/A   Mostly Cloudy
4:35 PM 51.8 °F - 35.6 °F 54% 30.20 in 10.0 mi SE 11.5 mph - N/A   Overcast
4:55 PM 51.8 °F - 35.6 °F 54% 30.20 in 10.0 mi ESE 12.7 mph - N/A   Overcast
5:15 PM 50.0 °F - 35.6 °F 58% 30.21 in 10.0 mi SE 12.7 mph 16.1 mph N/A   Overcast
5:35 PM 50.0 °F - 37.4 °F 62% 30.22 in 10.0 mi SE 12.7 mph - N/A   Overcast
6:15 PM 48.2 °F - 35.6 °F 62% 30.23 in 10.0 mi ESE 12.7 mph - N/A   Overcast
6:35 PM 46.4 °F 40.1 °F 35.6 °F 66% 30.23 in 10.0 mi ESE 15.0 mph 18.4 mph N/A   Mostly Cloudy
6:55 PM 46.4 °F 40.4 °F 37.4 °F 71% 30.24 in 10.0 mi ESE 13.8 mph 19.6 mph N/A   Mostly Cloudy
8:16 PM 44.6 °F 38.1 °F 37.4 °F 76% 30.24 in 10.0 mi ESE 13.8 mph - N/A   Overcast
8:55 PM 44.6 °F 38.4 °F 37.4 °F 76% 30.23 in 10.0 mi SE 12.7 mph - N/A   Overcast
9:15 PM 44.6 °F 37.4 °F 37.4 °F 76% 30.22 in 10.0 mi SE 16.1 mph - N/A   Overcast
9:35 PM 42.8 °F 35.8 °F 37.4 °F 81% 30.22 in 10.0 mi SE 13.8 mph 20.7 mph N/A   Overcast
9:55 PM 42.8 °F 35.4 °F 37.4 °F 81% 30.22 in 10.0 mi SE 15.0 mph 21.9 mph N/A   Overcast
10:15 PM 42.8 °F 34.8 °F 37.4 °F 81% 30.23 in 10.0 mi SE 17.3 mph 20.7 mph N/A   Overcast
10:35 PM 42.8 °F 35.4 °F 37.4 °F 81% 30.23 in 10.0 mi ESE 15.0 mph 23.0 mph N/A   Overcast
10:55 PM 42.8 °F 35.1 °F 37.4 °F 81% 30.22 in 10.0 mi ESE 16.1 mph 20.7 mph N/A   Overcast
11:35 PM 42.8 °F 34.8 °F 37.4 °F 81% 30.22 in 10.0 mi SE 17.3 mph - N/A   Overcast
11:55 PM 42.8 °F 35.8 °F 37.4 °F 81% 30.22 in 10.0 mi SE 13.8 mph - N/A   Overcast